www.pogodaiklimat.ru

Погода и климат >> Архив погоды >> Канада >> Vancouver


АРХИВ ПОГОДЫ в Vancouver

Время (UTC), дата Ветер
(напр.,м/с)
 
Видим.   Явления Облачность Т
(С)
Тd
(С)
f
(%)
Тe
(С)
Тes
(С)
Комфортность P
(гПа)
Po
(гПа)
Тmin
(С)
Tmax
(С)
R
(мм)
R24
(мм)
S
(см)
00 20.07 Ю 5 45 км 10/1 1000 м
[Cu hum Ac As Cs]
+21.8 +8.9 44 +23 +25 комфорт 1015.7 1015.2 +13.7 +23.9
03 20.07 ЮВ 2 45 км 9/0
[]
+21.6 +11.5 53 +24 +24 комфорт 1014.7 1014.2
06 20.07 В 5 30 км 10/0
[Ac As]
+18.9 +13.3 70 +20 +20 тепло 1014.9 1014.4 +13.7 +23.9 17
09 20.07 В 4 30 км 9/0
[]
+16.8 +12.7 77 +16 +16 по сезону 1015.4 1014.9
12 20.07 В 5 30 км в посл. час дождь 10/6 1000 м
[Sc Ac As]
+16.3 +13.0 81 +15 +15 по сезону 1016.2 1015.7 +15.6 +23.9 0.2
15 20.07 В 3 24 км 10/10 600 м
[]
+17.6 +14.6 83 +18 +18 тепло 1017.7 1017.2
18 20.07 ЮВ 5 24 км {ливн. осадки} 8/5 600 м
[Cu Sc Ac As Cc]
+20.6 +12.7 61 +23 +26 комфорт 1018.5 1018.0 +15.6 +20.9 0.0
21 20.07 ЮВ 6 45 км 8/8 1000 м
[]
+22.9 +12.5 52 +26 +27 жарко 1019.5 1019.0
00 21.07 Ю 5 45 км 9/1 1000 м
[Cu med, cong Ac As]
+22.7 +11.4 49 +25 +27 комфорт 1019.2 1018.7 +15.6 +23.6
03 21.07 Ю 4 45 км 9/9 1000 м
[]
+21.4 +10.7 50 +23 +23 комфорт 1019.1 1018.6
06 21.07 В 5 45 км 1/0 2000 м
[Ac As]
+16.7 +12.5 76 +16 +16 по сезону 1019.5 1019.0 +15.6 +23.6 22
09 21.07 В 3 45 км 3/3 1500 м
[]
+15.6 +12.5 82 +15 +15 по сезону 1019.7 1019.2
12 21.07 В 4 45 км 9/0
[Cs]
+14.3 +12.5 89 +13 +13 по сезону 1019.9 1019.4 +14.3 +23.6
15 21.07 В 5 45 км 10/0
[]
+16.8 +12.8 77 +16 +17 по сезону 1020.5 1020.0
18 21.07 В 2 45 км 10/1 1000 м
[Cu hum Ac As]
+19.1 +12.0 63 +21 +24 комфорт 1021.1 1020.6 +14.2 +19.9
21 21.07 Ю 3 45 км 10/10 1000 м
[]
+20.1 +12.1 60 +22 +22 комфорт 1021.4 1020.9
00 22.07 З 2 45 км слабый ливневой дождь 10/1 1000 м
[Cu hum Ac As]
+19.1 +12.9 67 +21 +23 комфорт 1021.1 1020.6 +14.2 +20.3 0.2
03 22.07 З 2 30 км 10/10 1500 м
[]
+18.3 +12.6 69 +19 +19 по сезону 1020.6 1020.1
06 22.07 З 2 30 км слабый ливневой дождь 10/9 1500 м
[Sc Ac As]
+16.8 +14.6 87 +17 +17 по сезону 1020.4 1019.9 +14.2 +20.3 0.0 16
09 22.07 ЮВ 1 30 км 10/10 1000 м
[]
+17.4 +13.6 78 +18 +18 тепло 1020.8 1020.3
12 22.07 СВ 4 24 км в посл. час ливневой дождь 10/10 600 м
[Sc]
+15.7 +14.3 91 +15 +15 по сезону 1021.1 1020.6 +15.4 +20.3 1
15 22.07 В 5 24 км 10/10 300 м
[]
+16.5 +14.7 89 +16 +16 по сезону 1022.5 1022.0
18 22.07 В 5 24 км 10/10 600 м
[Cu Sc]
+18.1 +14.8 81 +18 +18 по сезону 1022.7 1022.2 +15.4 +18.1
21 22.07 В 4 24 км 10/10 300 м
[]
+18.3 +15.9 86 +19 +19 по сезону 1022.7 1022.2
00 23.07 СВ 4 24 км {морось} 10/10 1000 м
[Sc]
+21.0 +15.1 69 +24 +24 комфорт 1021.1 1020.6 +15.4 +21.0 0.4
03 23.07 В 2 30 км 8/8 1000 м
[]
+20.8 +14.7 68 +25 +25 комфорт 1019.8 1019.3
06 23.07 Ю 2 30 км 8/0 2000 м
[Ac As]
+18.8 +16.7 88 +21 +21 комфорт 1019.4 1018.9 +15.4 +21.9 16
09 23.07 СЗ 1 30 км 10/10 600 м
[]
+17.5 +16.0 91 +19 +19 тепло 1018.8 1018.3
12 23.07 З 4 30 км 9/9 1000 м
[Sc]
+17.6 +16.4 93 +17 +17 тепло 1018.3 1017.8 +15.6 +21.9
15 23.07 З 9 30 км 10/10 200 м
[]
+17.5 +15.3 87 +16 +16 по сезону 1018.4 1017.9
18 23.07 З 9 30 км 8/6 300 м
[Cu Sc Ci fib]
+18.9 +14.1 74 +19 +19 по сезону 1018.7 1018.2 +15.6 +19.9
21 23.07 З 9 45 км 1/1 1000 м
[]
+21.2 +14.1 64 +24 +25 комфорт 1018.2 1017.7
00 24.07 З 8 45 км ясно +21.5 +13.2 59 +24 +26 комфорт 1017.1 1016.6 +15.6 +22.3
03 24.07 З 6 45 км ясно +19.2 +13.9 71 +20 +20 по сезону 1016.5 1016.0
06 24.07 СЗ 4 45 км ясно +16.7 +14.8 89 +16 +16 по сезону 1016.6 1016.1 +15.6 +22.3 181
09 24.07 З 7 45 км ясно +16.5 +13.3 81 +15 +15 по сезону 1017.4 1016.9
12 24.07 СЗ 7 45 км ясно +16.0 +13.4 85 +15 +15 по сезону 1017.2 1016.7 +15.8 +22.3
15 24.07 СЗ 8 45 км 3/0
[]
+17.2 +13.7 80 +16 +16 по сезону 1017.8 1017.3
18 24.07 З 8 45 км 4/1 1000 м
[Cu hum Ci fib]
+19.9 +14.2 70 +21 +23 комфорт 1017.5 1017.0 +15.7 +20.0
21 24.07 З 8 45 км 8/8 1000 м
[]
+20.2 +14.7 71 +22 +23 комфорт 1016.3 1015.8
00 25.07 З 7 45 км 5/0
[Cc]
+20.7 +14.7 68 +23 +25 комфорт 1014.8 1014.3 +15.7 +22.1
03 25.07 СЗ 6 45 км ясно +19.1 +15.2 78 +20 +20 по сезону 1013.8 1013.3
06 25.07 СЗ 4 45 км ясно +17.4 +14.3 82 +17 +17 по сезону 1014.3 1013.8 +15.7 +22.1 191
09 25.07 СЗ 4 45 км ясно +16.3 +14.7 90 +16 +16 по сезону 1015.1 1014.6
12 25.07 СЗ 6 45 км 1/0
[Ci fib]
+16.3 +14.3 88 +15 +15 по сезону 1016.2 1015.7 +15.2 +22.1
15 25.07 СЗ 5 45 км 1/0
[]
+17.9 +14.0 78 +17 +19 по сезону 1017.1 1016.6
18 25.07 З 6 45 км ясно +20.4 +14.8 70 +23 +28 комфорт 1017.4 1016.9 +15.2 +20.6
21 25.07 З 4 45 км ясно +21.6 +15.1 67 +25 +37 комфорт 1016.9 1016.4
00 26.07 З 4 45 км ясно +23.3 +14.9 59 +27 +33 душно 1015.7 1015.2 +15.2 +23.8
03 26.07 З 1 45 км ясно +21.1 +14.8 67 +24 +24 комфорт 1014.9 1014.4
06 26.07 С 1 45 км ясно +18.9 +15.5 81 +22 +22 комфорт 1015.3 1014.8 +15.2 +23.8 16
09 26.07 В 4 45 км ясно +16.0 +13.0 82 +15 +15 по сезону 1016.0 1015.5
12 26.07 В 4 45 км ясно +14.3 +11.0 81 +13 +13 по сезону 1016.6 1016.1 +13.8 +23.8
15 26.07 ЮВ 5 45 км 1/0
[]
+16.3 +12.6 79 +15 +17 по сезону 1018.0 1017.5
18 26.07 В 4 45 км 8/0
[Ac trans Ci fib]
+21.6 +13.3 59 +24 +31 комфорт 1018.0 1017.5 +13.6 +21.6
21 26.07 ЮВ 4 45 км 8/8 1000 м
[]
+23.4 +13.1 52 +26 +29 жарко 1017.4 1016.9

 

Местоположение метеостанции Vancouver (Канада): широта 49.20 долгота -123.10 высота над уровнем моря 4 м.

В архиве по умолчанию представлена погода в Vancouver за последнюю неделю. Архивные данные за месяц целиком и за предыдущие месяцы, начиная с января 2011 года, Вы можете получить, выбрав интересующий диапазон дат из раскрывающегося списка и нажав кнопку "Ввод!".

Внимание! Время в таблицах - всемирное. Для получения местного времени необходимо прибавить поправку, которая в Vancouver равна -8 ч.

Смотрите также архив погоды в соседних городах и на ближайших метеорологических станциях:

Погода в Vancouver Hillcrest (Канада) (3 км)
Погода в Vancouver Sea Island Ccg (Канада) (7 км)
Погода в Vancouver (aut) (Канада) (11 км)
Погода в West Vancouver Camp (Канада) (14 км)
Погода в Point Atkinson (Канада) (17 км)
Погода в Sand Heads (Канада) (18 км)
Погода в Cypress Bowl South (Канада) (21 км)
Погода в Cypress Bowl North (Канада) (23 км)
Погода в Howe Sound (Канада) (32 км)
Погода в White Rock Campbell (Канада) (35 км)

Пояснения к столбцам:

Ветер - указаны скорость ветра в м/с - средняя за 10 мин, порывы в срок и между сроками (в фигурных скобках) и направление, откуда дует ветер: С - северный, СВ - северо-восточный, В - восточный, ЮВ - юго-восточный, Ю - южный, ЮЗ - юго-западный, З - западный, СЗ - северо-западный.
Видимость - горизонтальная дальность видимости в метрах или километрах. При видимости от 1 до 10 км при отсутствии осадков обычно наблюдается дымка, при ухудшении видимости до 1 км и менее - туман. В сухую погоду видимость может ухудшаться дымом, пылью или мглою.
Явления - указаны атмосферные явления, наблюдавшиеся в срок или в последний час перед сроком; фигурными скобками обозначены явления, наблюдавшиеся между сроками (за 1-3 часа до срока); квадратными скобками обозначены град или гололедные отложения с указанием их диаметра в мм.
Облачность - указаны через наклонную черту общая и нижняя облачность в баллах и высота нижней границы облаков в метрах; квадратными скобками обозначены формы облаков: Ci - перистые, Cs - перисто-слоистые, Cc - перисто-кучевые, Ac - высококучевые, As - высокослоистые, Sc - слоисто-кучевые, Ns - слоисто-дождевые, Cu - кучевые, Cb - кучево-дождевые. Подробнее классификацию облаков см. в Атласе облаков (PDF).
T - Температура воздуха - температура, измеренная на высоте 2 м над землей.
Td - Температура точки росы - температура, при понижении до которой содержащийся в воздухе водяной пар достигнет насыщения.
f - Относительная влажность воздуха - влажноcть воздуха, измеренная на высоте 2 м над землей.
Te - Эффективная температура - температура, которую ощущает одетый по сезону человек в тени. Характеристика душности погоды. При расчете учитывается влияние влажности воздуха и скорости ветра на теплоощущения человека.
Tes - Эффективная температура на солнце - температура, которую ощущает человек, с поправкой на солнечный нагрев. Характеристика знойности погоды. Зависит от высоты солнца над горизонтом, облачности и скорости ветра. Ночью, в пасмурную погоду, а также при ветре 12 м/с и более поправка равна нулю.
P - Атмосферное давление - приведенное к уровню моря атмосферное давление.
Po - Атмосферное давление - измеренное на уровне метеостанции атмосферное давление.
Tmin - Минимальная температура - минимум температуры воздуха на высоте 2 м над землей.
Tmax - Максимальная температура - максимум температуры воздуха на высоте 2 м над землей.
R - Количество осадков - Количество выпавших осадков за период времени, мм. При наведении курсора мыши на число - период времени, за который выпало указанное количество осадков.
R24 - Количество осадков - Количество выпавших осадков за 24 часа, мм.
S - Снежный покров - Высота снежного покрова, см. При наведении курсора мыши на число - состояние снежного покрова и степень покрытия местности в баллах.